date,level_cm,rain_mm
2019-01-01,111.0,0
2019-01-02,111.0,0
2019-01-03,110.9,0
2019-01-04,110.9,0
2019-01-05,110.8,0
2019-01-06,110.6,0
2019-01-07,110.5,0
2019-01-08,110.5,0
2019-01-09,110.4,0
2019-01-10,110.2,0
2019-01-11,110.2,0
2019-01-12,110.2,0
2019-01-13,110.2,0
2019-01-14,110.0,0
2019-01-15,109.9,0
2019-01-16,109.7,0
2019-01-17,109.6,0
2019-01-18,109.4,0
2019-01-19,109.3,0
2019-01-20,109.3,0
2019-01-21,109.2,0
2019-01-22,109.0,0
2019-01-23,108.9,0
2019-01-24,108.8,0
2019-01-25,108.7,0
2019-01-26,108.6,0
2019-01-27,108.6,0
2019-01-28,108.5,0
2019-01-29,108.4,0
2019-01-30,108.3,0
2019-01-31,108.2,0
2019-02-01,108.1,1
2019-02-02,109.1,10
2019-02-03,110.8,16
2019-02-04,110.6,0
2019-02-05,110.6,0
2019-02-06,110.5,0
2019-02-07,110.5,0
2019-02-08,110.4,0
2019-02-09,110.2,0
2019-02-10,110.1,0
2019-02-11,110.1,0
2019-02-12,109.9,0
2019-02-13,109.8,0
2019-02-14,109.7,0
2019-02-15,109.6,0
2019-02-16,109.5,0
2019-02-17,109.3,0
2019-02-18,109.2,0
2019-02-19,109.1,0
2019-02-20,109.0,0
2019-02-21,108.9,0
2019-02-22,108.8,0
2019-02-23,108.7,0
2019-02-24,108.6,0
2019-02-25,108.4,0
2019-02-26,108.3,0
2019-02-27,108.2,0
2019-02-28,108.1,0
2019-03-01,108.0,0
2019-03-02,107.9,0
2019-03-03,107.7,0
2019-03-04,107.6,0
2019-03-05,107.4,0
2019-03-06,107.3,0
2019-03-07,107.3,1
2019-03-08,108.9,14
2019-03-09,108.8,0
2019-03-10,108.7,0
2019-03-11,108.5,0
2019-03-12,108.4,0
2019-03-13,108.2,0
2019-03-14,108.1,0
2019-03-15,108.0,0
2019-03-16,107.9,0
2019-03-17,107.7,0
2019-03-18,107.5,0
2019-03-19,107.4,0
2019-03-20,107.3,0
2019-03-21,107.2,0
2019-03-22,107.1,0
2019-03-23,106.9,0
2019-03-24,106.8,0
2019-03-25,106.6,0
2019-03-26,106.5,0
2019-03-27,106.4,0
2019-03-28,106.2,0
2019-03-29,106.1,0
2019-03-30,105.9,0
2019-03-31,105.8,0
2019-04-01,105.7,0
2019-04-02,105.5,0
2019-04-03,105.3,0
2019-04-04,108.5,28
2019-04-05,111.7,28
2019-04-06,111.6,0
2019-04-07,111.5,0
2019-04-08,111.7,3
2019-04-09,111.5,0
2019-04-10,111.0,0
2019-04-11,111.5,3
2019-04-12,111.5,2
2019-04-13,111.5,2
2019-04-14,111.5,1
2019-04-15,111.0,0
2019-04-16,110.5,0
2019-04-17,110.5,0
2019-04-18,110.5,0
2019-04-19,110.0,0
2019-04-20,110.0,0
2019-04-21,109.5,0
2019-04-22,109.0,0
2019-04-23,112.0,40
2019-04-24,114.5,25
2019-04-25,114.5,0
2019-04-26,114.5,0
2019-04-27,114.0,0
2019-04-28,114.0,0
2019-04-29,113.5,0
2019-04-30,113.0,0
2019-05-01,112.5,0
2019-05-02,112.2,0
2019-05-03,112.0,0
2019-05-04,112.2,3
2019-05-05,112.8,2
2019-05-06,112.0,0
2019-05-07,111.2,0
2019-05-08,113.0,25
2019-05-09,112.6,0
2019-05-10,112.2,0
2019-05-11,111.8,0
2019-05-12,111.4,0
2019-05-13,111.0,0
2019-05-14,110.6,0
2019-05-15,110.2,0
2019-05-16,109.8,0
2019-05-17,110.0,2
2019-05-18,111.2,17
2019-05-19,111.6,7
2019-05-20,112.7,11
2019-05-21,112.2,0
2019-05-22,111.6,0
2019-05-23,111.0,0
2019-05-24,110.5,0
2019-05-25,112.3,18
2019-05-26,111.9,3
2019-05-27,112.2,7
2019-05-28,111.9,3
2019-05-29,111.6,0
2019-05-30,111.3,0
2019-05-31,111.0,0
2019-06-01,110.7,0
2019-06-02,110.4,0
2019-06-03,110.0,0
2019-06-04,109.6,0
2019-06-05,109.2,0
2019-06-06,109.2,4
2019-06-07,108.8,0
2019-06-08,108.5,0
2019-06-09,108.2,0
2019-06-10,107.9,7
2019-06-11,108.5,11
2019-06-12,108.0,0
2019-06-13,107.5,0
2019-06-14,107.0,0
2019-06-15,108.5,20
2019-06-16,108.0,0
2019-06-17,107.5,0
2019-06-18,107.0,0
2019-06-19,106.4,0
2019-06-20,106.1,1
2019-06-21,105.5,0
2019-06-22,105.5,4
2019-06-23,105.0,0
2019-06-24,104.5,0
2019-06-25,104.0,0
2019-06-26,103.5,0
2019-06-27,103.0,0
2019-06-28,102.5,0
2019-06-29,102.0,0
2019-06-30,101.5,0
2019-07-01,101.0,0
2019-07-02,100.5,0
2019-07-03,100.5,9
2019-07-04,100.0,0
2019-07-05,99.5,0
2019-07-06,99.0,0
2019-07-07,98.5,0
2019-07-08,98.0,0
2019-07-09,97.5,0
2019-07-10,97.0,0
2019-07-11,96.5,0
2019-07-12,95.9,0
2019-07-13,95.3,0
2019-07-14,95.0,0
2019-07-15,98.5,32
2019-07-16,98.3,0
2019-07-17,98.0,0
2019-07-18,97.5,0
2019-07-19,97.0,0
2019-07-20,96.5,0
2019-07-21,96.0,0
2019-07-22,95.5,0
2019-07-23,95.0,0
2019-07-24,94.5,0
2019-07-25,94.0,0
2019-07-26,93.7,2
2019-07-27,95.0,12
2019-07-28,94.5,0
2019-07-29,94.0,0
2019-07-30,93.5,0
2019-07-31,93.0,0
2019-08-01,95.0,27
2019-08-02,94.3,0
2019-08-03,93.6,0
2019-08-04,92.9,0
2019-08-05,92.2,0
2019-08-06,92.0,4
2019-08-07,92.0,5
2019-08-08,91.3,0
2019-08-09,90.6,0
2019-08-10,89.9,0
2019-08-11,89.7,3
2019-08-12,89.5,4
2019-08-13,88.9,0
2019-08-14,88.3,0
2019-08-15,87.7,0
2019-08-16,87.1,0
2019-08-17,86.5,0
2019-08-18,85.9,0
2019-08-19,85.5,2
2019-08-20,85.5,5
2019-08-21,85.1,0
2019-08-22,84.7,0
2019-08-23,84.5,3
2019-08-24,84.5,3
2019-08-25,84.1,0
2019-08-26,83.7,0
2019-08-27,83.3,0
2019-08-28,84.2,11
2019-08-29,83.8,0
2019-08-30,83.3,0
2019-08-31,83.2,4
2019-09-01,82.8,0
2019-09-02,82.3,0
2019-09-03,81.8,0
2019-09-04,81.4,0
2019-09-05,81.5,7
2019-09-06,83.9,28
2019-09-07,84.8,10
2019-09-08,84.3,0
2019-09-09,83.8,0
2019-09-10,83.4,1
2019-09-11,82.8,0
2019-09-12,82.2,0
2019-09-13,81.6,0
2019-09-14,81.0,0
2019-09-15,80.5,0
2019-09-16,80.1,0
2019-09-17,79.7,0
2019-09-18,79.3,0
2019-09-19,82.0,27
2019-09-20,81.6,0
2019-09-21,81.2,0
2019-09-22,80.9,2
2019-09-23,80.6,0
2019-09-24,80.3,0
2019-09-25,80.0,0
2019-09-26,79.7,0
2019-09-27,79.4,0
2019-09-28,79.1,0
2019-09-29,78.8,0
2019-09-30,78.5,0
2019-10-01,78.2,0
2019-10-02,78.5,11
2019-10-03,78.0,0
2019-10-04,77.5,0
2019-10-05,77.1,0
2019-10-06,76.7,0
2019-10-07,76.5,3
2019-10-08,76.2,0
2019-10-09,76.0,2
2019-10-10,75.7,0
2019-10-11,75.4,0
2019-10-12,75.2,0
2019-10-13,74.9,0
2019-10-14,74.6,0
2019-10-15,80.0,49
2019-10-16,79.7,0
2019-10-17,79.4,0
2019-10-18,79.1,0
2019-10-19,79.6,7
2019-10-20,80.2,7
2019-10-21,82.2,20
2019-10-22,81.9,0
2019-10-23,84.6,27
2019-10-24,84.3,0
2019-10-25,84.0,0
2019-10-26,83.7,0
2019-10-27,84.0,0
2019-10-28,83.9,0
2019-10-29,83.8,0
2019-10-30,83.9,2
2019-10-31,83.8,0
2019-11-01,84.0,2
2019-11-02,83.8,0
2019-11-03,84.1,5
2019-11-04,83.9,0
2019-11-05,83.7,0
2019-11-06,83.5,0
2019-11-07,83.3,0
2019-11-08,84.4,10
2019-11-09,84.2,0
2019-11-10,84.0,0
2019-11-11,84.5,7
2019-11-12,84.2,0
2019-11-13,83.9,0
2019-11-14,88.5,47
2019-11-15,88.3,0
2019-11-16,88.8,7
2019-11-17,89.9,9
2019-11-18,89.9,0
2019-11-19,93.5,36
2019-11-20,95.5,11
2019-11-21,95.5,2
2019-11-22,98.0,27
2019-11-23,119.5,105
2019-11-24,129.5,50
2019-11-25,134.5,5
2019-11-26,136.5,0
2019-11-27,140.0,14
2019-11-28,140.6,0
2019-11-29,141.1,0
2019-11-30,140.8,0
2019-12-01,143.2,22
2019-12-02,143.4,0
2019-12-03,143.3,2
2019-12-04,143.1,0
2019-12-05,142.6,0
2019-12-06,142.0,0
2019-12-07,141.4,0
2019-12-08,140.9,0
2019-12-09,140.3,0
2019-12-10,139.8,0
2019-12-11,139.3,0
2019-12-12,138.8,0
2019-12-13,139.4,6
2019-12-14,139.0,0
2019-12-15,138.5,0
2019-12-16,138.2,1
2019-12-17,139.9,20
2019-12-18,141.0,11
2019-12-19,143.0,14
2019-12-20,149.4,35
2019-12-21,149.6,5
2019-12-22,149.3,2
2019-12-23,149.0,0
2019-12-24,148.7,0
2019-12-25,148.4,0
2019-12-26,148.2,0
2019-12-27,148.7,0
2019-12-28,148.1,0
2019-12-29,147.5,0
2019-12-30,146.9,0
2019-12-31,146.3,0
2020-01-01,145.7,0
2020-01-02,145.1,0
2020-01-03,144.5,0
2020-01-04,144.0,0
2020-01-05,143.5,0
2020-01-06,143.0,0
2020-01-07,142.5,0
2020-01-08,142.0,0
2020-01-09,141.5,0
2020-01-10,141.0,0
2020-01-11,140.5,0
2020-01-12,140.0,0
2020-01-13,139.5,0
2020-01-14,138.9,0
2020-01-15,138.3,0
2020-01-16,137.7,0
2020-01-17,137.1,0
2020-01-18,137.0,5
2020-01-19,136.6,0
2020-01-20,136.2,0
2020-01-21,135.8,0
2020-01-22,135.4,0
2020-01-23,135.0,0
2020-01-24,134.6,0
2020-01-25,134.2,0
2020-01-26,133.8,0
2020-01-27,133.4,0
2020-01-28,133.3,3
2020-01-29,132.9,0
2020-01-30,132.5,0
2020-01-31,132.0,0
2020-02-01,131.6,0
2020-02-02,131.1,0
2020-02-03,130.4,0
2020-02-04,129.7,0
2020-02-05,129.2,0
2020-02-06,128.8,0
2020-02-07,128.5,0
2020-02-08,128.2,0
2020-02-09,127.9,0
2020-02-10,127.6,0
2020-02-11,127.0,0
2020-02-12,126.5,0
2020-02-13,126.2,0
2020-02-14,125.9,0
2020-02-15,125.5,0
2020-02-16,125.2,0
2020-02-17,124.9,0
2020-02-18,124.6,0
2020-02-19,124.0,0
2020-02-20,123.7,0
2020-02-21,123.4,0
2020-02-22,123.1,0
2020-02-23,122.8,0
2020-02-24,122.5,0
2020-02-25,122.2,0
2020-02-26,121.6,0
2020-02-27,121.3,0
2020-02-28,121.0,0
2020-02-29,120.7,0
2020-03-01,120.4,0
2020-03-02,123.0,29
2020-03-03,122.6,0
2020-03-04,122.2,0
2020-03-05,121.8,0
2020-03-06,122.8,11
2020-03-07,122.7,0
2020-03-08,122.5,0
2020-03-09,122.2,0
2020-03-10,121.9,0
2020-03-11,121.6,0
2020-03-12,121.0,0
2020-03-13,120.7,0
2020-03-14,121.1,5
2020-03-15,120.8,0
2020-03-16,120.5,0
2020-03-17,120.2,0
2020-03-18,119.9,0
2020-03-19,119.6,0
2020-03-20,119.3,0
2020-03-21,119.0,0
2020-03-22,118.6,1
2020-03-23,118.2,0
2020-03-24,117.8,0
2020-03-25,117.4,0
2020-03-26,117.0,0
2020-03-27,116.6,1
2020-03-28,116.3,0
2020-03-29,115.9,0
2020-03-30,118.5,26
2020-03-31,118.2,0
2020-04-01,117.9,0
2020-04-02,117.6,0
2020-04-03,117.3,0
2020-04-04,117.1,0
2020-04-05,116.9,0
2020-04-06,116.6,0
2020-04-07,116.3,0
2020-04-08,116.0,0
2020-04-09,115.7,0
2020-04-10,115.4,0
2020-04-11,115.0,0
2020-04-12,114.5,0
2020-04-13,114.0,0
2020-04-14,113.5,0
2020-04-15,113.0,0
2020-04-16,112.5,0
2020-04-17,112.0,0
2020-04-18,112.1,0
2020-04-19,112.0,3
2020-04-20,112.8,9
2020-04-21,116.3,38
2020-04-22,116.0,0
2020-04-23,115.7,0
2020-04-24,115.4,0
2020-04-25,115.2,0
2020-04-26,115.2,2
2020-04-27,115.1,0
2020-04-28,115.9,10
2020-04-29,115.5,0
2020-04-30,115.8,4
2020-05-01,115.5,0
2020-05-02,115.0,0
2020-05-03,114.5,0
2020-05-04,114.0,0
2020-05-05,113.5,0
2020-05-06,113.1,0
2020-05-07,112.6,0
2020-05-08,112.2,0
2020-05-09,111.8,0
2020-05-10,112.8,10
2020-05-11,117.0,35
2020-05-12,116.6,0
2020-05-13,117.8,14
2020-05-14,117.5,0
2020-05-15,120.5,25
2020-05-16,120.5,3
2020-05-17,121.3,10
2020-05-18,120.9,0
2020-05-19,120.5,0
2020-05-20,120.1,0
2020-05-21,119.7,0
2020-05-22,119.3,0
2020-05-23,118.9,0
2020-05-24,118.5,0
2020-05-25,117.9,0
2020-05-26,117.2,0
2020-05-27,116.4,0
2020-05-28,115.8,0
2020-05-29,115.0,0
2020-05-30,114.4,2
2020-05-31,113.7,1
2020-06-01,113.0,0
2020-06-02,112.7,3
2020-06-03,112.7,5
2020-06-04,116.7,43
2020-06-05,116.0,0
2020-06-06,115.5,0
2020-06-07,121.8,63
2020-06-08,122.2,9
2020-06-09,122.8,11
2020-06-10,122.0,0
2020-06-11,122.2,6
2020-06-12,122.0,3
2020-06-13,123.8,16
2020-06-14,123.3,0
2020-06-15,122.9,2
2020-06-16,123.4,6
2020-06-17,123.1,4
2020-06-18,123.1,8
2020-06-19,122.3,0
2020-06-20,121.5,0
2020-06-21,120.7,0
2020-06-22,120.0,0
2020-06-23,119.8,4
2020-06-24,119.9,8
2020-06-25,119.2,0
2020-06-26,118.6,0
2020-06-27,117.9,0
2020-06-28,117.1,0
2020-06-29,116.2,0
2020-06-30,115.3,0
2020-07-01,116.0,9
2020-07-02,115.8,6
2020-07-03,115.0,0
2020-07-04,114.2,0
2020-07-05,113.4,0
2020-07-06,112.6,0
2020-07-07,112.0,0
2020-07-08,111.3,0
2020-07-09,110.6,0
2020-07-10,110.1,0
2020-07-11,109.3,0
2020-07-12,108.8,0
2020-07-13,108.0,0
2020-07-14,107.2,0
2020-07-15,106.4,0
2020-07-16,105.6,0
2020-07-17,104.8,0
2020-07-18,104.0,0
2020-07-19,103.3,0
2020-07-20,102.6,0
2020-07-21,102.0,0
2020-07-22,101.8,8
2020-07-23,101.2,0
2020-07-24,105.0,40
2020-07-25,104.4,0
2020-07-26,103.9,0
2020-07-27,103.4,0
2020-07-28,102.9,0
2020-07-29,102.4,0
2020-07-30,102.0,2
2020-07-31,101.4,0
2020-08-01,100.8,0
2020-08-02,100.4,2
2020-08-03,100.2,4
2020-08-04,99.5,0
2020-08-05,98.8,0
2020-08-06,98.4,0
2020-08-07,98.0,0
2020-08-08,97.6,0
2020-08-09,97.2,0
2020-08-10,96.9,0
2020-08-11,96.6,0
2020-08-12,96.4,2
2020-08-13,96.7,8
2020-08-14,96.2,0
2020-08-15,95.7,0
2020-08-16,95.9,7
2020-08-17,95.5,1
2020-08-18,95.0,0
2020-08-19,94.4,0
2020-08-20,93.8,0
2020-08-21,93.2,0
2020-08-22,92.6,0
2020-08-23,91.9,0
2020-08-24,92.2,9
2020-08-25,91.7,0
2020-08-26,91.3,0
2020-08-27,90.9,0
2020-08-28,90.5,0
2020-08-29,90.8,6
2020-08-30,93.0,22
2020-08-31,92.6,0
2020-09-01,92.2,0
2020-09-02,91.8,0
2020-09-03,91.2,0
2020-09-04,91.0,0
2020-09-05,90.8,0
2020-09-06,91.4,10
2020-09-07,91.9,9
2020-09-08,91.5,0
2020-09-09,91.2,0
2020-09-10,90.9,0
2020-09-11,91.2,5
2020-09-12,90.9,0
2020-09-13,90.6,0
2020-09-14,90.3,0
2020-09-15,89.6,0
2020-09-16,88.9,0
2020-09-17,88.6,0
2020-09-18,88.3,0
2020-09-19,88.0,0
2020-09-20,87.5,0
2020-09-21,91.0,38
2020-09-22,92.0,12
2020-09-23,91.5,0
2020-09-24,92.0,10
2020-09-25,91.8,2
2020-09-26,91.3,0
2020-09-27,90.8,0
2020-09-28,90.3,0
2020-09-29,89.8,0
2020-09-30,89.3,0
2020-10-01,88.8,0
2020-10-02,101.8,120
2020-10-03,103.8,20
2020-10-04,103.8,3
2020-10-05,103.5,0
2020-10-06,103.2,0
2020-10-07,102.9,0
2020-10-08,102.6,0
2020-10-09,102.3,0
2020-10-10,102.0,0
2020-10-11,101.7,0
2020-10-12,101.4,0
2020-10-13,101.1,0
2020-10-14,100.9,0
2020-10-15,101.2,6
2020-10-16,101.0,0
2020-10-17,100.8,0
2020-10-18,100.6,0
2020-10-19,100.4,0
2020-10-20,100.3,0
2020-10-21,100.2,0
2020-10-22,100.1,0
2020-10-23,100.7,6
2020-10-24,100.6,0
2020-10-25,100.5,0
2020-10-26,102.5,22
2020-10-27,102.1,0
2020-10-28,101.7,0
2020-10-29,101.2,0
2020-10-30,100.7,0
2020-10-31,100.6,0
2020-11-01,100.7,2
2020-11-02,100.7,0
2020-11-03,100.7,0
2020-11-04,100.7,0
2020-11-05,100.7,0
2020-11-06,100.7,0
2020-11-07,100.7,0
2020-11-08,100.7,0
2020-11-09,100.5,0
2020-11-10,100.3,0
2020-11-11,100.1,0
2020-11-12,100.0,0
2020-11-13,99.9,0
2020-11-14,99.7,0
2020-11-15,99.6,0
2020-11-16,99.5,1
2020-11-17,99.4,0
2020-11-18,99.4,1
2020-11-19,99.3,0
2020-11-20,99.2,0
2020-11-21,99.0,0
2020-11-22,98.8,0
2020-11-23,98.6,0
2020-11-24,98.4,0
2020-11-25,98.2,0
2020-11-26,98.0,0
2020-11-27,97.9,0
2020-11-28,97.8,0
2020-11-29,97.7,0
2020-11-30,97.6,0
2020-12-01,97.8,3
2020-12-02,98.2,5
2020-12-03,98.3,2
2020-12-04,102.1,38
2020-12-05,102.6,6
2020-12-06,102.6,1
2020-12-07,103.0,5
2020-12-08,103.5,6
2020-12-09,103.9,5
2020-12-10,103.8,0
2020-12-11,103.8,1
2020-12-12,103.5,1
2020-12-13,103.4,0
2020-12-14,103.4,0
2020-12-15,103.4,0
2020-12-16,103.3,0
2020-12-17,103.3,0
2020-12-18,103.3,0
2020-12-19,103.3,0
2020-12-20,103.4,1
2020-12-21,103.4,0
2020-12-22,103.4,0
2020-12-23,103.4,0
2020-12-24,103.3,0
2020-12-25,103.2,1
2020-12-26,102.9,0
2020-12-27,102.6,0
2020-12-28,103.2,7
2020-12-29,102.9,0
2020-12-30,102.5,0
2020-12-31,102.3,0
2021-01-01,103.0,8
2021-01-02,107.0,36
2021-01-03,110.0,26
2021-01-04,111.2,12
2021-01-05,111.3,2
2021-01-06,111.5,3
2021-01-07,111.7,3
2021-01-08,111.6,0
2021-01-09,111.5,0
2021-01-10,111.4,0
2021-01-11,111.3,0
2021-01-12,111.2,0
2021-01-13,111.1,0
2021-01-14,110.9,0
2021-01-15,110.7,0
2021-01-16,110.5,0
2021-01-17,110.3,0
2021-01-18,110.1,0
2021-01-19,109.9,0
2021-01-20,109.7,0
2021-01-21,110.0,5
2021-01-22,114.7,35
2021-01-23,115.5,10
2021-01-24,115.3,0
2021-01-25,115.1,0
2021-01-26,114.9,0
2021-01-27,114.7,0
2021-01-28,114.5,0
2021-01-29,114.3,0
2021-01-30,115.2,9
2021-01-31,115.3,2
2021-02-01,115.2,0
2021-02-02,115.0,0
2021-02-03,115.6,3
2021-02-04,116.7,9
2021-02-05,118.7,15
2021-02-06,118.7,1
2021-02-07,118.6,0
2021-02-08,118.5,0
2021-02-09,118.4,0
2021-02-10,118.7,4
2021-02-11,118.5,0
2021-02-12,118.4,1
2021-02-13,118.2,0
2021-02-14,118.1,0
2021-02-15,117.9,0
2021-02-16,117.8,0
2021-02-17,117.6,0
2021-02-18,117.4,0
2021-02-19,117.2,0
2021-02-20,117.0,0
2021-02-21,116.8,0
2021-02-22,116.6,0
2021-02-23,116.4,0
2021-02-24,116.2,0
2021-02-25,116.0,0
2021-02-26,115.8,0
2021-02-27,115.6,0
2021-02-28,115.4,0
2021-03-01,115.2,0
2021-03-02,115.1,0
2021-03-03,115.0,0
2021-03-04,114.9,0
2021-03-05,114.8,0
2021-03-06,115.2,5
2021-03-07,115.1,0
2021-03-08,114.9,0
2021-03-09,114.7,0
2021-03-10,114.5,0
2021-03-11,114.3,0
2021-03-12,114.1,0
2021-03-13,113.9,0
2021-03-14,113.7,0
2021-03-15,113.5,0
2021-03-16,113.3,0
2021-03-17,113.1,0
2021-03-18,112.9,0
2021-03-19,112.7,0
2021-03-20,112.1,0
2021-03-21,111.9,0
2021-03-22,111.6,0
2021-03-23,111.3,0
2021-03-24,111.0,0
2021-03-25,110.7,0
2021-03-26,110.4,0
2021-03-27,110.2,0
2021-03-28,110.0,0
2021-03-29,109.8,0
2021-03-30,109.6,0
2021-03-31,109.4,0
2021-04-01,109.2,0
2021-04-02,109.0,0
2021-04-03,108.7,0
2021-04-04,108.4,0
2021-04-05,108.1,0
2021-04-06,107.8,0
2021-04-07,107.5,0
2021-04-08,107.2,0
2021-04-09,107.0,0
2021-04-10,106.9,2
2021-04-11,107.7,9
2021-04-12,107.7,3
2021-04-13,107.5,0
2021-04-14,107.3,0
2021-04-15,107.5,5
2021-04-16,107.0,0
2021-04-17,106.8,0
2021-04-18,106.6,0
2021-04-19,106.4,0
2021-04-20,106.2,0
2021-04-21,106.2,2
2021-04-22,106.0,0
2021-04-23,105.7,0
2021-04-24,105.4,0
2021-04-25,105.1,0
2021-04-26,105.0,1
2021-04-27,105.0,2
2021-04-28,104.8,2
2021-04-29,105.7,11
2021-04-30,106.3,8
2021-05-01,107.9,20
2021-05-02,108.2,6
2021-05-03,107.9,0
2021-05-04,107.6,0
2021-05-05,107.3,0
2021-05-06,107.0,0
2021-05-07,106.7,0
2021-05-08,106.4,0
2021-05-09,106.1,0
2021-05-10,106.4,6
2021-05-11,110.6,48
2021-05-12,110.3,0
2021-05-13,110.2,3
2021-05-14,110.1,2
2021-05-15,109.8,0
2021-05-16,109.5,0
2021-05-17,109.2,0
2021-05-18,108.9,0
2021-05-19,108.6,0
2021-05-20,108.3,0
2021-05-21,108.1,1
2021-05-22,108.2,4
2021-05-23,107.9,0
2021-05-24,107.9,3
2021-05-25,107.5,0
2021-05-26,107.1,0
2021-05-27,106.6,0
2021-05-28,106.2,0
2021-05-29,105.7,0
2021-05-30,105.0,0
2021-05-31,104.6,2
2021-06-01,104.2,0
2021-06-02,103.8,0
2021-06-03,103.4,0
2021-06-04,103.0,0
2021-06-05,102.6,0
2021-06-06,103.2,9
2021-06-07,103.3,5
2021-06-08,103.1,1
2021-06-09,102.8,0
2021-06-10,102.4,0
2021-06-11,102.0,0
2021-06-12,101.5,0
2021-06-13,101.0,0
2021-06-14,100.5,0
2021-06-15,100.0,0
2021-06-16,99.5,0
2021-06-17,99.4,4
2021-06-18,98.9,0
2021-06-19,98.4,0
2021-06-20,98.1,1
2021-06-21,97.9,1
2021-06-22,97.6,3
2021-06-23,97.3,3
2021-06-24,99.5,27
2021-06-25,99.1,0
2021-06-26,98.7,0
2021-06-27,98.4,0
2021-06-28,98.0,0
2021-06-29,99.0,12
2021-06-30,98.6,0
2021-07-01,98.2,0
2021-07-02,97.8,0
2021-07-03,97.4,0
2021-07-04,97.0,0
2021-07-05,96.6,0
2021-07-06,96.2,0
2021-07-07,96.0,2
2021-07-08,97.7,15
2021-07-09,97.4,0
2021-07-10,97.1,0
2021-07-11,96.8,0
2021-07-12,96.5,0
2021-07-13,101.5,32
2021-07-14,101.4,2
2021-07-15,101.0,0
2021-07-16,100.6,0
2021-07-17,100.2,0
2021-07-18,99.8,0
2021-07-19,99.4,0
2021-07-20,99.0,0
2021-07-21,98.7,0
2021-07-22,98.5,1
2021-07-23,98.2,0
2021-07-24,98.5,6
2021-07-25,99.0,10
2021-07-26,99.2,6
2021-07-27,99.2,4
2021-07-28,98.9,0
2021-07-29,98.5,0
2021-07-30,98.1,0
2021-07-31,98.5,7
2021-08-01,98.5,3
2021-08-02,98.0,0
2021-08-03,98.2,3
2021-08-04,98.0,2
2021-08-05,97.5,0
2021-08-06,97.0,0
2021-08-07,96.8,2
2021-08-08,96.5,0
2021-08-09,96.0,0
2021-08-10,96.0,0
2021-08-11,95.5,0
2021-08-12,95.0,0
2021-08-13,94.3,0
2021-08-14,93.6,0
2021-08-15,93.0,0
2021-08-16,92.5,0
2021-08-17,92.0,0
2021-08-18,91.5,0
2021-08-19,91.0,0
2021-08-20,90.5,0
2021-08-21,90.0,0
2021-08-22,89.5,0
2021-08-23,89.0,0
2021-08-24,88.5,0
2021-08-25,88.0,0
2021-08-26,87.5,0
2021-08-27,87.1,0
2021-08-28,86.6,0
2021-08-29,86.1,0
2021-08-30,85.6,0
2021-08-31,87.1,18
2021-09-01,86.6,0
2021-09-02,86.0,0
2021-09-03,85.6,0
2021-09-04,85.2,0
2021-09-05,84.8,0
2021-09-06,84.4,0
2021-09-07,84.0,0
2021-09-08,83.6,0
2021-09-09,83.2,0
2021-09-10,82.8,0
2021-09-11,82.5,0
2021-09-12,82.2,0
2021-09-13,81.8,0
2021-09-14,81.5,0
2021-09-15,81.1,1
2021-09-16,80.9,2
2021-09-17,80.5,0
2021-09-18,80.3,2
2021-09-19,84.5,44
2021-09-20,84.1,0
2021-09-21,83.8,0
2021-09-22,83.5,0
2021-09-23,83.2,0
2021-09-24,82.8,0
2021-09-25,82.4,0
2021-09-26,82.4,4
2021-09-27,82.0,0
2021-09-28,81.6,0
2021-09-29,81.2,0
2021-09-30,80.8,0
2021-10-01,80.4,0
2021-10-02,80.0,0
2021-10-03,81.2,16
2021-10-04,84.0,28
2021-10-05,85.0,14
2021-10-06,84.5,0
2021-10-07,84.1,0
2021-10-08,83.8,0
2021-10-09,83.6,0
2021-10-10,83.4,0
2021-10-11,83.2,0
2021-10-12,82.9,0
2021-10-13,82.5,0
2021-10-14,82.2,0
2021-10-15,82.0,0
2021-10-16,81.8,0
2021-10-17,81.6,0
2021-10-18,81.4,0
2021-10-19,81.2,0
2021-10-20,81.0,0
2021-10-21,80.9,1
2021-10-22,80.7,0
2021-10-23,80.5,0
2021-10-24,80.2,0
2021-10-25,79.8,0
2021-10-26,79.5,0
2021-10-27,79.2,0
2021-10-28,78.9,0
2021-10-29,78.6,0
2021-10-30,78.8,5
2021-10-31,80.1,6
2021-11-01,82.3,22
2021-11-02,81.9,0
2021-11-03,81.5,8
2021-11-04,81.0,0
2021-11-05,80.5,0
2021-11-06,80.0,0
2021-11-07,79.8,0
2021-11-08,79.7,0
2021-11-09,79.6,0
2021-11-10,80.2,6
2021-11-11,80.8,6
2021-11-12,80.7,0
2021-11-13,80.5,0
2021-11-14,82.0,14
2021-11-15,87.2,36
2021-11-16,87.3,1
2021-11-17,87.6,4
2021-11-18,87.4,0
2021-11-19,87.2,0
2021-11-20,87.0,0
2021-11-21,86.8,0
2021-11-22,87.4,6
2021-11-23,88.4,12
2021-11-24,88.3,0
2021-11-25,89.1,9
2021-11-26,89.0,0
2021-11-27,88.9,0
2021-11-28,88.8,0
2021-11-29,88.7,0
2021-11-30,88.6,0
2021-12-01,88.5,0
2021-12-02,88.4,0
2021-12-03,88.3,0
2021-12-04,88.2,0
2021-12-05,88.1,0
2021-12-06,88.0,0
2021-12-07,87.9,0
2021-12-08,88.7,8
2021-12-09,89.3,7
2021-12-10,89.2,0
2021-12-11,89.1,0
2021-12-12,89.0,0
2021-12-13,88.9,0
2021-12-14,88.8,0
2021-12-15,88.7,0
2021-12-16,88.6,0
2021-12-17,88.5,1
2021-12-18,88.4,0
2021-12-19,88.3,0
2021-12-20,88.0,0
2021-12-21,88.0,0
2021-12-22,88.0,0
2021-12-23,88.0,0
2021-12-24,88.0,0
2021-12-25,88.0,0
2021-12-26,88.0,0
2021-12-27,88.0,1
2021-12-28,87.9,0
2021-12-29,87.9,0
2021-12-30,87.9,0
2021-12-31,87.9,0
2022-01-01,87.9,1
2022-01-02,87.8,0
2022-01-03,87.8,0
2022-01-04,87.8,0
2022-01-05,87.8,1
2022-01-06,87.7,0
2022-01-07,87.7,0
2022-01-08,87.7,0
2022-01-09,87.7,0
2022-01-10,87.6,0
2022-01-11,87.6,0
2022-01-12,87.6,0
2022-01-13,87.6,0
2022-01-14,87.5,0
2022-01-15,87.5,0
2022-01-16,87.3,0
2022-01-17,87.1,0
2022-01-18,86.9,0
2022-01-19,86.8,0
2022-01-20,86.7,0
2022-01-21,86.6,0
2022-01-22,86.5,0
2022-01-23,86.3,0
2022-01-24,86.2,0
2022-01-25,86.1,0
2022-01-26,86.0,0
2022-01-27,85.9,0
2022-01-28,85.9,0
2022-01-29,85.8,0
2022-01-30,85.8,0
2022-01-31,85.8,0
2022-02-01,85.7,0
2022-02-02,85.7,0
2022-02-03,85.7,0
2022-02-04,85.6,0
2022-02-05,85.6,0
2022-02-06,85.6,0
2022-02-07,85.6,0
2022-02-08,85.5,0
2022-02-09,85.5,0
2022-02-10,85.5,0
2022-02-11,85.5,0
2022-02-12,85.4,0
2022-02-13,85.4,0
2022-02-14,85.6,2
2022-02-15,85.8,2
2022-02-16,85.8,0
2022-02-17,85.8,0
2022-02-18,85.8,0
2022-02-19,85.7,0
2022-02-20,85.7,0
2022-02-21,85.7,0
2022-02-22,85.6,0
2022-02-23,85.6,0
2022-02-24,85.6,0
2022-02-25,85.6,0
2022-02-26,85.6,0
2022-02-27,85.6,0
2022-02-28,85.6,0
2022-03-01,85.6,0
2022-03-02,85.6,0
2022-03-03,85.6,0
2022-03-04,85.5,0
2022-03-05,85.5,0
2022-03-06,85.5,0
2022-03-07,85.5,0
2022-03-08,85.5,0
2022-03-09,85.5,0
2022-03-10,85.4,0
2022-03-11,85.4,0
2022-03-12,85.4,0
2022-03-13,85.4,0
2022-03-14,85.6,2
2022-03-15,85.7,2
2022-03-16,85.7,0
2022-03-17,85.6,0
2022-03-18,85.6,0
2022-03-19,85.5,0
2022-03-20,85.5,0
2022-03-21,85.4,0
2022-03-22,85.4,0
2022-03-23,85.3,0
2022-03-24,85.2,0
2022-03-25,85.1,0
2022-03-26,85.0,0
2022-03-27,84.8,0
2022-03-28,84.6,0
2022-03-29,84.4,0
2022-03-30,84.7,4
2022-03-31,85.0,3
2022-04-01,85.6,6
2022-04-02,85.6,1
2022-04-03,85.5,0
2022-04-04,85.5,0
2022-04-05,85.4,0
2022-04-06,85.3,0
2022-04-07,85.2,0
2022-04-08,85.1,0
2022-04-09,84.9,0
2022-04-10,84.7,0
2022-04-11,84.5,0
2022-04-12,84.3,0
2022-04-13,84.1,0
2022-04-14,83.9,0
2022-04-15,83.7,0
2022-04-16,83.5,0
2022-04-17,83.3,0
2022-04-18,83.1,0
2022-04-19,82.9,0
2022-04-20,82.7,0
2022-04-21,82.4,0
2022-04-22,82.0,0
2022-04-23,85.0,27
2022-04-24,84.9,0
2022-04-25,84.8,0
2022-04-26,84.7,0
2022-04-27,84.5,0
2022-04-28,84.3,0
2022-04-29,84.1,0
2022-04-30,83.9,0
2022-05-01,83.6,0
2022-05-02,83.3,0
2022-05-03,83.1,0
2022-05-04,83.3,3
2022-05-05,83.9,6
2022-05-06,84.5,6
2022-05-07,84.7,2
2022-05-08,85.0,3
2022-05-09,84.7,0
2022-05-10,84.4,0
2022-05-11,84.1,0
2022-05-12,83.8,0
2022-05-13,83.5,0
2022-05-14,83.5,2
2022-05-15,83.9,4
2022-05-16,83.6,0
2022-05-17,83.3,0
2022-05-18,83.0,0
2022-05-19,82.7,0
2022-05-20,82.4,0
2022-05-21,82.1,0
2022-05-22,81.8,0
2022-05-23,81.5,0
2022-05-24,82.1,8
2022-05-25,83.1,10
2022-05-26,82.8,0
2022-05-27,82.6,0
2022-05-28,84.5,22
2022-05-29,84.2,0
2022-05-30,83.8,0
2022-05-31,83.4,0
2022-06-01,83.0,0
2022-06-02,82.6,0
2022-06-03,82.6,3
2022-06-04,82.3,0
2022-06-05,84.5,22
2022-06-06,84.3,0
2022-06-07,84.0,0
2022-06-08,83.6,0
2022-06-09,83.2,0
2022-06-10,82.8,0
2022-06-11,82.3,0
2022-06-12,81.8,0
2022-06-13,81.3,0
2022-06-14,80.8,0
2022-06-15,80.4,0
2022-06-16,80.0,0
2022-06-17,79.6,0
2022-06-18,79.2,0
2022-06-19,78.8,0
2022-06-20,78.3,0
2022-06-21,77.7,0
2022-06-22,77.5,4
2022-06-23,78.5,11
2022-06-24,79.3,10
2022-06-25,78.8,0
2022-06-26,79.0,6
2022-06-27,78.5,0
2022-06-28,78.4,3
2022-06-29,77.9,0
2022-06-30,77.4,0
2022-07-01,78.1,9
2022-07-02,77.7,0
2022-07-03,77.4,0
2022-07-04,77.4,3
2022-07-05,77.0,0
2022-07-06,76.5,0
2022-07-07,76.0,0
2022-07-08,75.5,0
2022-07-09,74.9,0
2022-07-10,74.4,0
2022-07-11,73.8,0
2022-07-12,73.2,0